CAPE
866 874 944 1026 1177 1369 1328 1460 1571 1925 2184 2565 2356 1872 1216 399 59 33 0 0 0 0 0 0 0 0 0 0 0 0 0 0 0 0 0 0 0 0 0 0 0 0 0
960 1066 1089 1158 1147 1197 1471 1531 1794 2069 2274 2535 1939 1420 614 96 24 0 0 0 0 0 0 0 0 0 0 0 0 0 0 0 0 0 0 0 0 0 0 0 0 0 0
1093 1178 1158 1164 1231 1297 1421 1753 1975 2208 2431 1971 1318 604 56 19 0 0 0 0 0 0 0 0 0 0 0 0 0 0 0 0 0 0 0 0 0 0 0 0 0 0 0
1123 1195 1230 1221 1222 1356 1675 2031 2209 2430 2193 1514 812 116 4 0 0 0 0 0 0 0 0 0 0 0 0 0 0 0 0 0 0 0 0 0 0 0 0 0 0 0 0
1133 1190 1269 1381 1496 1589 1875 2172 2450 2428 1889 1083 108 0 0 0 0 0 0 0 0 0 0 0 0 0 0 0 0 0 0 0 0 0 0 0 0 0 0 0 0 0 0
1273 1287 1300 1617 1707 1875 2114 2364 2582 2154 1336 214 9 0 0 0 0 0 0 0 0 0 0 0 0 0 0 0 0 0 0 0 0 0 0 0 0 0 0 0 0 0 0
1567 1561 1696 1793 1884 2116 2296 2566 2282 1410 273 9 0 0 0 0 0 0 0 0 0 0 0 0 0 0 0 0 0 0 0 0 0 0 0 0 0 0 0 0 0 0 0
1333 1370 1782 2087 2194 2297 2399 2339 1746 577 52 0 0 0 0 0 0 0 0 0 0 0 0 0 0 0 0 0 0 0 0 0 0 0 0 0 0 0 0 0 0 0 0
909 1415 1928 2220 2310 2377 2534 1990 1056 205 1 0 0 0 0 0 0 0 0 0 0 0 0 0 0 0 0 0 0 0 0 0 0 0 0 0 0 0 0 0 0 0 0
912 1482 2002 2267 2346 2472 2401 1513 657 84 0 0 0 0 0 0 0 0 0 0 0 0 0 0 0 0 0 0 0 0 0 0 0 0 0 0 0 0 0 0 0 0 0
1583 1860 2121 2266 2414 2550 2052 821 147 0 0 0 0 0 0 0 0 0 0 0 0 0 0 0 0 0 0 0 0 0 0 0 0 0 0 0 0 0 0 0 0 0 0
1750 1917 2154 2336 2307 2136 1250 318 33 1 2 0 0 0 0 0 0 0 0 0 0 0 0 0 0 0 0 0 0 0 0 0 0 0 0 0 0 0 0 0 0 0 0
1729 1913 2279 2397 1904 1505 720 166 3 3 0 0 0 0 0 0 0 0 0 0 0 0 0 0 0 0 0 0 0 0 0 0 0 0 0 0 0 0 0 0 0 0 0
1772 2178 2269 1889 1563 908 608 114 37 0 0 0 0 0 0 0 0 0 0 0 0 0 0 0 0 0 0 0 0 0 0 0 0 0 0 0 0 0 0 0 0 0 0
1958 1991 1659 1427 813 613 617 357 130 0 0 0 0 0 0 0 0 0 0 0 0 0 0 0 0 0 0 0 0 0 0 0 0 0 0 0 0 0 0 0 0 0 0
1721 1553 1302 939 772 565 90 4 0 0 0 0 0 0 0 0 0 0 0 0 0 0 0 0 0 0 0 0 0 0 0 0 0 0 0 0 0 0 0 0 0 0 0
1456 1311 1159 833 666 34 11 0 0 0 0 0 0 0 0 0 0 0 0 0 0 0 0 0 0 0 0 0 0 0 0 0 0 0 0 0 0 0 0 0 0 0 0
1478 1243 989 1090 615 115 64 33 0 1 0 0 0 0 0 0 0 0 0 0 0 0 0 0 0 0 0 0 0 0 0 0 0 0 0 0 0 0 0 0 0 0 0
1432 1029 1094 833 439 237 97 16 0 0 0 0 0 0 0 0 0 0 0 0 0 0 0 0 0 0 0 0 0 0 0 0 0 0 0 0 0 0 0 0 0 0 0
1023 906 954 675 308 200 75 0 0 0 0 0 0 0 0 0 0 0 0 0 0 0 0 0 0 0 0 0 0 0 0 0 0 0 0 0 0 0 0 0 0 0 0
855 617 623 352 95 79 0 0 0 0 0 0 0 0 0 0 0 0 0 0 0 0 0 0 0 0 0 0 0 0 0 0 0 0 0 0 0 0 0 0 0 0 0
638 345 272 252 119 1 0 0 0 0 0 0 0 0 0 0 0 0 0 0 0 0 0 0 0 0 0 0 0 0 0 0 0 0 0 0 0 0 0 0 0 0 0
427 330 351 190 14 0 0 0 0 0 0 0 0 0 0 0 0 0 0 0 0 0 0 0 0 0 0 0 0 0 0 0 0 0 0 0 0 0 0 0 0 0 0
594 578 438 138 0 0 0 0 0 0 0 0 0 0 0 0 0 0 0 0 0 0 0 0 0 0 0 0 0 0 0 0 0 0 0 0 0 0 0 0 0 0 0
295 279 217 106 5 0 0 0 0 0 0 0 0 0 0 0 0 0 0 0 0 0 0 0 0 0 0 0 0 0 0 0 0 0 0 0 0 0 0 0 0 0 0
33 29 54 74 9 0 0 0 0 0 0 0 0 0 0 0 0 0 0 0 0 0 0 0 0 0 0 0 0 0 0 0 0 0 0 0 0 0 0 0 0 0 0
CIN
-286 -283 -283 -252 -231 -206 -196 -170 -159 -105 -74 -36 -37 -69 -154 -369 -529 -500 -0 -0 -0 -0 -0 -0 -0 -0 -0 -0 -0 -0 -0 -0 -0 -0 -0 -0 -0 -0 -0 -0 -0 -0 -0
-304 -294 -294 -275 -258 -243 -217 -186 -159 -124 -81 -44 -82 -133 -299 -527 -592 -13 -0 -0 -0 -0 -0 -0 -0 -0 -0 -0 -0 -0 -0 -0 -0 -0 -0 -0 -0 -0 -0 -0 -0 -0 -0
-301 -311 -299 -291 -286 -266 -223 -174 -167 -121 -75 -96 -169 -325 -614 -625 -0 -0 -0 -0 -0 -0 -0 -0 -0 -0 -0 -0 -0 -0 -0 -0 -0 -0 -0 -0 -0 -0 -0 -0 -0 -0 -0
-301 -299 -301 -297 -292 -255 -207 -175 -153 -108 -101 -161 -287 -583 -388 -0 -0 -0 -0 -0 -0 -0 -0 -0 -0 -0 -0 -0 -0 -0 -0 -0 -0 -0 -0 -0 -0 -0 -0 -0 -0 -0 -0
-321 -301 -312 -302 -283 -243 -214 -194 -138 -121 -147 -253 -639 -0 -0 -0 -0 -0 -0 -0 -0 -0 -0 -0 -0 -0 -0 -0 -0 -0 -0 -0 -0 -0 -0 -0 -0 -0 -0 -0 -0 -0 -0
-301 -318 -318 -326 -293 -270 -232 -184 -141 -163 -254 -552 -892 -0 -0 -0 -0 -0 -0 -0 -0 -0 -0 -0 -0 -0 -0 -0 -0 -0 -0 -0 -0 -0 -0 -0 -0 -0 -0 -0 -0 -0 -0
-344 -328 -323 -313 -312 -287 -229 -178 -200 -293 -539 -510 -0 -0 -0 -0 -0 -0 -0 -0 -0 -0 -0 -0 -0 -0 -0 -0 -0 -0 -0 -0 -0 -0 -0 -0 -0 -0 -0 -0 -0 -0 -0
-349 -321 -320 -324 -295 -252 -209 -214 -272 -494 -717 -0 -0 -0 -0 -0 -0 -0 -0 -0 -0 -0 -0 -0 -0 -0 -0 -0 -0 -0 -0 -0 -0 -0 -0 -0 -0 -0 -0 -0 -0 -0 -0
-326 -344 -330 -316 -295 -272 -230 -290 -435 -649 -39 -0 -0 -0 -0 -0 -0 -0 -0 -0 -0 -0 -0 -0 -0 -0 -0 -0 -0 -0 -0 -0 -0 -0 -0 -0 -0 -0 -0 -0 -0 -0 -0
-329 -350 -354 -356 -328 -277 -269 -391 -526 -770 -0 -0 -0 -0 -0 -0 -0 -0 -0 -0 -0 -0 -0 -0 -0 -0 -0 -0 -0 -0 -0 -0 -0 -0 -0 -0 -0 -0 -0 -0 -0 -0 -0
-410 -416 -424 -407 -356 -291 -319 -538 -756 -0 -0 -0 -0 -0 -0 -0 -0 -0 -0 -0 -0 -0 -0 -0 -0 -0 -0 -0 -0 -0 -0 -0 -0 -0 -0 -0 -0 -0 -0 -0 -0 -0 -0
-487 -489 -455 -416 -376 -365 -513 -756 -799 -0 -0 -0 -0 -0 -0 -0 -0 -0 -0 -0 -0 -0 -0 -0 -0 -0 -0 -0 -0 -0 -0 -0 -0 -0 -0 -0 -0 -0 -0 -0 -0 -0 -0
-546 -522 -461 -410 -452 -524 -680 -846 -0 -0 -0 -0 -0 -0 -0 -0 -0 -0 -0 -0 -0 -0 -0 -0 -0 -0 -0 -0 -0 -0 -0 -0 -0 -0 -0 -0 -0 -0 -0 -0 -0 -0 -0
-604 -530 -475 -513 -543 -664 -702 -844 -723 -0 -0 -0 -0 -0 -0 -0 -0 -0 -0 -0 -0 -0 -0 -0 -0 -0 -0 -0 -0 -0 -0 -0 -0 -0 -0 -0 -0 -0 -0 -0 -0 -0 -0
-612 -562 -573 -573 -732 -751 -664 -681 -736 -0 -0 -0 -0 -0 -0 -0 -0 -0 -0 -0 -0 -0 -0 -0 -0 -0 -0 -0 -0 -0 -0 -0 -0 -0 -0 -0 -0 -0 -0 -0 -0 -0 -0
-652 -635 -635 -707 -715 -747 -965 -753 -0 -0 -0 -0 -0 -0 -0 -0 -0 -0 -0 -0 -0 -0 -0 -0 -0 -0 -0 -0 -0 -0 -0 -0 -0 -0 -0 -0 -0 -0 -0 -0 -0 -0 -0
-638 -660 -654 -713 -737 -1180 -1167 -0 -0 -0 -0 -0 -0 -0 -0 -0 -0 -0 -0 -0 -0 -0 -0 -0 -0 -0 -0 -0 -0 -0 -0 -0 -0 -0 -0 -0 -0 -0 -0 -0 -0 -0 -0
-621 -674 -690 -604 -720 -946 -997 -993 -0 -0 -0 -0 -0 -0 -0 -0 -0 -0 -0 -0 -0 -0 -0 -0 -0 -0 -0 -0 -0 -0 -0 -0 -0 -0 -0 -0 -0 -0 -0 -0 -0 -0 -0
-601 -659 -584 -636 -719 -750 -870 -1079 -0 -0 -0 -0 -0 -0 -0 -0 -0 -0 -0 -0 -0 -0 -0 -0 -0 -0 -0 -0 -0 -0 -0 -0 -0 -0 -0 -0 -0 -0 -0 -0 -0 -0 -0
-642 -642 -597 -643 -746 -716 -863 -16 -0 -0 -0 -0 -0 -0 -0 -0 -0 -0 -0 -0 -0 -0 -0 -0 -0 -0 -0 -0 -0 -0 -0 -0 -0 -0 -0 -0 -0 -0 -0 -0 -0 -0 -0
-642 -718 -662 -729 -918 -884 -0 -0 -0 -0 -0 -0 -0 -0 -0 -0 -0 -0 -0 -0 -0 -0 -0 -0 -0 -0 -0 -0 -0 -0 -0 -0 -0 -0 -0 -0 -0 -0 -0 -0 -0 -0 -0
-701 -810 -785 -738 -848 -444 -0 -0 -0 -0 -0 -0 -0 -0 -0 -0 -0 -0 -0 -0 -0 -0 -0 -0 -0 -0 -0 -0 -0 -0 -0 -0 -0 -0 -0 -0 -0 -0 -0 -0 -0 -0 -0
-725 -730 -660 -705 -935 -0 -0 -0 -0 -0 -0 -0 -0 -0 -0 -0 -0 -0 -0 -0 -0 -0 -0 -0 -0 -0 -0 -0 -0 -0 -0 -0 -0 -0 -0 -0 -0 -0 -0 -0 -0 -0 -0
-567 -542 -566 -703 -118 -0 -0 -0 -0 -0 -0 -0 -0 -0 -0 -0 -0 -0 -0 -0 -0 -0 -0 -0 -0 -0 -0 -0 -0 -0 -0 -0 -0 -0 -0 -0 -0 -0 -0 -0 -0 -0 -0
-674 -647 -636 -687 -768 -0 -0 -0 -0 -0 -0 -0 -0 -0 -0 -0 -0 -0 -0 -0 -0 -0 -0 -0 -0 -0 -0 -0 -0 -0 -0 -0 -0 -0 -0 -0 -0 -0 -0 -0 -0 -0 -0
-920 -886 -766 -665 -651 -0 -0 -0 -0 -0 -0 -0 -0 -0 -0 -0 -0 -0 -0 -0 -0 -0 -0 -0 -0 -0 -0 -0 -0 -0 -0 -0 -0 -0 -0 -0 -0 -0 -0 -0 -0 -0 -0
Wind_Speed
32 31 30 28 26 24 21 18 14 10 6 6 8 10 11 12 13 16 18 19 19 21 21 23 23 22 23 22 20 21 21 21 22 23 24 27 26 27 26 25 23 21 21
31 30 29 27 25 22 20 16 12 8 6 6 8 9 11 12 13 15 16 18 18 20 21 22 24 24 23 22 21 23 22 21 21 23 25 25 27 27 28 25 26 23 24
30 29 28 26 24 21 18 14 10 7 5 6 8 9 10 12 12 14 16 17 17 19 21 23 24 23 23 23 23 23 22 22 20 22 23 25 26 27 29 26 26 22 23
29 28 27 25 22 19 16 12 7 5 5 6 8 10 11 12 12 14 15 16 16 18 20 22 23 23 23 24 23 23 23 22 22 21 24 25 25 28 26 28 27 26 27
28 28 26 24 21 18 13 8 5 4 5 6 8 10 11 12 12 14 14 15 16 18 20 21 22 23 23 24 23 23 23 23 22 23 24 24 27 29 29 28 27 27 27
26 27 25 22 18 15 11 7 4 3 4 6 7 10 11 12 13 14 14 15 16 17 19 20 21 20 23 21 22 21 20 22 22 23 24 26 26 26 27 27 24 28 26
27 28 24 21 17 13 9 5 3 3 4 5 6 9 12 13 12 13 14 15 16 17 18 19 20 22 23 25 22 20 18 16 17 21 22 22 22 23 23 24 25 25 24
29 28 24 20 16 12 9 6 4 2 2 3 6 9 12 12 12 13 14 15 16 16 17 18 20 22 24 25 24 22 21 20 21 21 20 18 19 22 21 22 21 20 23
30 27 23 20 16 12 10 7 4 2 0 2 5 8 11 12 11 12 12 14 16 16 16 18 21 22 25 25 23 23 22 21 24 20 17 16 16 17 18 24 26 26 28
28 24 21 17 15 13 10 7 5 2 1 2 5 7 10 11 10 11 12 14 15 15 16 18 21 23 24 24 23 23 23 24 24 22 19 18 17 21 17 17 25 26 27
20 18 17 15 13 12 9 7 5 3 1 2 4 6 9 10 11 11 12 15 15 15 16 18 20 23 23 23 22 22 22 22 20 19 20 22 24 24 24 26 25 25 25
13 13 14 14 11 9 8 6 6 3 3 1 2 5 8 9 10 11 12 15 15 15 16 18 20 21 21 20 21 22 21 20 21 21 23 24 26 26 26 25 23 23 21
13 12 12 11 10 8 8 7 7 6 5 4 1 3 6 7 9 10 12 13 13 14 16 18 19 19 18 17 19 21 20 23 23 24 25 26 26 26 26 26 25 23 22
10 10 10 11 8 7 7 8 7 7 7 5 2 1 4 6 8 9 10 11 13 13 15 16 17 17 17 18 18 19 21 24 24 25 26 26 26 26 26 28 27 28 27
10 10 10 8 8 7 5 6 6 5 7 6 3 1 2 4 5 7 9 10 11 14 15 15 17 17 19 19 20 21 21 23 24 25 26 27 28 29 29 28 28 29 30
12 11 11 8 6 6 3 0 6 1 2 3 1 1 4 5 7 7 10 12 13 14 15 16 17 18 18 19 20 21 21 23 26 25 26 27 28 28 29 28 29 30 31
13 12 10 8 6 5 4 3 3 3 2 4 4 4 3 5 6 7 9 11 12 13 16 17 17 17 17 19 19 20 22 24 24 26 25 27 27 28 28 29 30 32 32
12 12 10 8 6 5 4 4 4 5 5 4 5 4 2 4 5 7 8 10 12 12 13 15 16 16 17 18 19 20 22 23 25 25 25 26 27 29 30 32 33 34 34
12 11 9 6 5 4 3 3 3 5 5 4 4 4 1 3 4 5 6 9 11 13 14 15 15 16 17 18 19 19 20 23 23 24 25 26 28 28 30 29 30 32 32
11 10 8 6 5 4 3 3 4 5 5 5 5 4 2 2 2 3 4 7 10 11 13 13 14 15 16 17 18 19 20 21 23 24 25 26 27 28 30 32 32 33 34
12 10 7 6 5 5 4 3 5 5 5 6 6 5 6 3 0 2 4 6 9 11 11 12 13 14 14 16 18 19 20 22 23 24 25 26 26 29 29 30 32 33 35
10 9 8 7 6 5 4 4 5 6 6 6 5 5 8 2 1 2 4 6 8 10 10 11 12 13 14 16 17 18 20 21 22 23 24 25 27 28 29 31 32 34 35
9 9 9 7 6 5 4 4 6 6 7 7 6 5 8 4 2 3 4 5 7 9 10 10 11 12 14 15 16 17 19 20 21 22 23 25 27 29 30 32 34 36 36
10 9 9 9 7 7 6 7 7 8 8 8 7 7 8 5 3 2 3 4 6 8 8 9 10 11 13 14 15 15 17 19 19 20 21 25 26 28 29 32 33 35 36
12 12 10 10 9 8 9 9 9 9 9 8 8 7 7 5 3 2 2 4 5 6 7 8 9 10 11 13 15 16 17 18 18 18 19 24 27 27 29 31 33 34 36
12 13 13 11 11 11 12 12 12 11 10 9 8 8 7 6 3 2 1 3 4 4 5 6 8 9 10 12 14 15 16 16 17 17 18 22 25 27 26 30 33 34 35
Wind_Direction
173 174 176 178 181 184 188 188 185 168 133 93 67 58 51 45 44 36 33 34 35 34 32 28 27 27 24 24 26 23 20 16 9 8 7 4 6 6 8 9 12 11 10
173 173 176 178 179 182 185 182 174 156 119 84 64 55 47 41 40 33 30 31 34 31 29 26 22 23 24 24 22 18 17 16 11 6 5 5 5 6 5 9 8 10 8
171 173 177 177 180 184 182 175 163 139 96 75 62 49 44 37 36 32 30 31 33 30 26 23 21 22 22 21 19 16 15 13 12 7 5 7 7 8 5 9 10 12 9
172 174 176 178 180 180 176 170 154 118 92 72 54 46 42 32 34 31 30 32 33 29 25 22 22 22 21 18 16 15 14 11 10 9 5 6 7 6 9 7 9 9 6
172 176 178 180 179 178 175 167 145 117 93 69 53 43 37 30 29 31 30 32 30 26 24 24 24 24 23 19 15 14 12 10 10 8 5 6 5 5 5 6 5 5 5
174 178 180 179 179 179 174 164 139 109 80 57 51 37 29 26 26 30 32 29 25 24 23 23 24 26 20 17 16 15 14 11 9 7 5 4 4 5 5 5 5 3 4
177 181 181 182 183 181 174 166 154 111 65 64 40 27 21 20 33 33 32 27 26 24 24 23 23 21 17 13 13 13 13 13 12 9 5 5 4 6 5 4 3 2 1
183 187 187 186 184 181 179 183 172 138 89 62 24 20 22 25 35 35 34 29 26 26 25 26 22 18 16 13 12 13 13 13 12 8 6 5 4 4 4 1 358 359 360
189 190 189 188 189 188 190 194 198 199 53 28 16 18 17 23 38 39 39 29 27 26 28 26 21 18 15 14 14 14 14 15 10 11 11 8 6 4 4 3 3 2 360
192 192 191 191 191 191 193 199 196 208 280 7 9 18 23 28 41 42 36 25 24 26 28 25 23 19 16 17 17 15 14 12 9 12 16 14 11 6 5 8 2 360 358
192 191 190 191 196 196 192 185 193 204 257 340 5 16 21 32 40 41 34 25 23 25 24 22 22 18 18 19 18 19 15 11 15 17 17 14 11 11 9 4 3 1 357
211 205 200 199 200 196 186 179 174 187 187 276 20 14 18 32 40 38 34 26 27 28 23 22 20 18 19 20 21 17 17 18 19 19 16 13 10 9 7 6 4 3 1
221 218 199 191 185 180 172 164 162 165 163 160 152 6 19 33 39 41 35 32 33 31 25 21 19 19 20 21 21 20 21 19 19 17 15 13 11 9 7 6 6 6 5
204 188 178 174 173 169 163 161 161 170 168 172 180 11 20 30 40 48 40 37 35 33 26 24 22 22 23 23 22 23 22 20 19 16 14 13 12 11 10 8 7 6 5
200 190 178 179 177 173 169 170 178 185 181 180 185 133 34 28 57 59 46 41 40 32 27 24 21 22 22 22 23 23 23 21 19 17 16 14 12 11 11 10 9 7 6
202 193 190 193 194 187 196 283 345 262 213 203 222 359 18 35 75 63 49 41 39 35 26 19 20 21 22 22 23 23 23 20 16 16 16 15 13 13 11 12 11 10 7
206 200 201 201 209 227 228 219 216 321 325 295 301 334 23 67 77 66 56 48 43 36 20 20 21 23 24 22 24 23 21 18 17 16 17 16 15 14 14 13 12 11 9
209 203 204 209 221 233 223 208 199 199 198 226 292 315 32 92 79 69 60 48 33 27 20 21 23 24 25 24 24 23 21 19 17 18 17 17 16 15 14 13 12 9 8
213 205 212 219 242 234 216 195 198 195 197 218 250 301 71 89 77 69 65 34 25 21 21 23 25 25 26 25 24 24 21 18 18 18 19 19 18 17 16 16 14 12 11
214 211 219 225 242 233 230 218 182 195 207 224 221 216 170 113 48 36 41 22 21 23 26 26 29 29 26 26 23 23 21 20 19 20 21 21 20 20 17 16 15 14 12
219 213 215 236 244 253 252 221 192 210 232 232 229 208 187 186 345 29 20 17 18 22 27 29 30 30 31 27 24 22 21 21 21 22 23 24 23 21 22 21 19 16 13
218 206 224 244 258 256 243 226 218 225 233 226 231 224 188 222 306 354 8 16 18 21 29 33 30 31 31 28 27 24 24 24 23 26 27 26 25 25 24 22 20 18 16
218 229 245 253 261 244 243 249 228 233 228 224 231 219 194 238 284 328 358 10 17 20 28 33 31 31 33 32 30 29 26 25 28 30 31 29 28 26 26 24 23 21 21
235 234 246 252 253 252 249 255 243 240 235 229 227 214 206 241 264 305 346 8 13 18 27 29 29 32 33 33 32 36 34 30 36 36 36 32 31 29 29 27 26 26 26
249 251 249 256 263 257 260 258 245 234 234 233 233 227 219 227 239 281 332 358 5 11 19 31 32 35 37 37 33 34 33 36 42 45 42 36 32 31 32 30 29 30 29
256 257 263 271 273 272 267 260 252 247 238 224 222 225 216 211 230 277 321 349 3 21 37 36 34 36 40 39 35 37 39 45 48 55 49 39 35 34 36 33 31 32 32